User: anonymous   Login
Location: NJAA Observatory
(40.6819°N, 74.8979°W)
Time: 06:23:59
(UTC-04:00)
Language:

Landsat 5 - Orbit

View from above orbital plane
View from above orbital plane
View from above satellite
View from above satellite

Ground track
Ground track

The orbit data is extracted from the following two-line orbital elements,

1 14780U 84021A   16274.39794572  .00000418  00000-0  45232-4 0  9994
2 14780  98.0285  15.6069 0090169 305.1416  54.1376 14.91252856737158
Epoch (UTC): 30 September 2016 09:33:02
Eccentricity: 0.0090169
inclination: 98.0285°
perigee height: 531 km
apogee height: 657 km
right ascension of ascending node: 15.6069°
argument of perigee: 305.1416°
revolutions per day: 14.91252856
mean anomaly at epoch: 54.1376°
orbit number at epoch: 73715

The dashed part of the orbit path shows where the satellite is in the earth's shadow,  

DLR